This demonstration page uses our WeatherBlox Daily Observations layout. Learn more.

Left ArrowRight Arrow

34.02893, -84.19858

Hourly Observations for August 27, 2020

Temp ( °F °C ) Dew Point ( °F °C ) Humidity (%) Winds ( mph kmh ) Pressure ( in mb ) Visibility ( mi km ) Precip ( " mm )
12:53 am 00:53 Clear 72 22.2 71 21.7 97 97 Calm 30.05 1018 10 16 0.00 0.00
1:53 am 01:53 Mostly Clear 72 22.2 71 21.7 97 97 Calm 30.04 1017 10 16 0.00 0.00
2:36 am 02:36 Mostly Clear 71 21.7 71 21.7 100 100 Calm 30.05 1018 8 13 0.00 0.00
2:53 am 02:53 Mostly Clear 71 21.7 71 21.7 100 100 Calm 30.02 1017 9 14 0.00 0.00
3:53 am 03:53 Clear 70 21.1 70 21.1 100 100 Calm 30.02 1017 10 16 0.00 0.00
4:53 am 04:53 Clear 71 21.7 70 21.1 96 96 Calm 30.03 1017 10 16 0.00 0.00
5:53 am 05:53 Clear 70 21.1 69 20.6 97 97 Calm 30.03 1017 9 14 0.00 0.00
6:53 am 06:53 Clear 71 21.7 70 21.1 96 96 Calm 30.04 1017 10 16 0.00 0.00
7:53 am 07:53 Sunny 73 22.8 71 21.7 94 94 Calm 30.06 1018 10 16 0.00 0.00
8:53 am 08:53 Mostly Sunny 76 24.4 73 22.8 91 91 Calm 30.07 1018 10 16 0.00 0.00
9:53 am 09:53 Sunny 80 26.7 75 23.9 85 85 VRB 3 6 30.06 1018 10 16 0.00 0.00
10:53 am 10:53 Sunny 83 28.3 75 23.9 77 77 VRB 5 7 30.06 1018 10 16 0.00 0.00
11:53 am 11:53 Sunny 85 29.4 73 22.8 68 68 Calm 30.05 1018 10 16 0.00 0.00
12:53 pm 12:53 Sunny 87 30.6 71 21.7 59 59 Calm 30.04 1017 10 16 0.00 0.00
1:53 pm 13:53 Sunny 88 31.1 70 21.1 55 55 S 8 13 30.02 1017 10 16 0.00 0.00
2:53 pm 14:53 Mostly Sunny 88 31.1 71 21.7 57 57 SE 8 13 30.00 1016 10 16 0.00 0.00
3:53 pm 15:53 Sunny 87 30.6 72 22.2 61 61 SE 6 9 29.98 1015 10 16 0.00 0.00
5:53 pm 17:53 Mostly Cloudy 88 31.1 73 22.8 61 61 SE 3 6 29.96 1014 10 16 0.00 0.00
6:53 pm 18:53 Sunny 84 28.9 74 23.3 72 72 SE 6 9 29.96 1015 10 16 0.00 0.00
7:53 pm 19:53 Sunny 82 27.8 75 23.9 79 79 Calm 29.98 1015 10 16 0.00 0.00
8:53 pm 20:53 Clear 80 26.7 74 23.3 82 82 Calm 29.98 1015 10 16 0.00 0.00
9:53 pm 21:53 Clear 81 27.2 74 23.3 79 79 Calm 29.98 1015 10 16 0.00 0.00
10:53 pm 22:53 Mostly Clear 80 26.7 74 23.3 82 82 Calm 29.98 1015 10 16 0.00 0.00
11:53 pm 23:53 Mostly Clear 79 26.1 74 23.3 85 85 SSE 5 7 29.99 1016 10 16 0.00 0.00

Powered by AerisWeather